STARLINK-30495, 57968

Orbit data source: Space-Track

STARLINK-30495, 57968 is a payload satellite owned by SpaceX/Seattle (US) in LEO that was launched on Sat, 30 Sep 2023 UTC via an FALCON 9 launch vehicle from the Air Force Eastern Test Range (AFETR). Payload-class satellites include a variety of spacecraft equipped with specific instruments for various scientific and technological missions. These include communications satellites like Starlink; space stations such as the ISS; scientific satellites like the Hubble; Earth observation satellites from companies like Planet Labs, Umbra, and HawkEye 360; GPS; miniature CubeSats for education and research; and military/defense satellites.

Loading next visibility...
Identifier
57968, 2023-151E
Orbit
LEO
Country
Flag of USUS
Related business
Manufacturer
SpaceX/Seattle
Mission
Operational Commercial Communications
Bus & Motor
STARLINK V2M, Unknown motor
Mass
730 kg wet, ~700 kg dry
Launch date (UTC)
2023-09-30 (3 years ago)
Launch vehicle
FALCON 9
Launch site
Air Force Eastern Test Range (AFETR)
Object type
Payload
Rocket body
Debris
Shape & HBR
Box + 2 Pan, 17.7 m
Radar Cross Section
33.884 m², Large (>1 m²)

Expand to show TLE details & history
Last TLE update: 18 hours ago

TLE from 18 hours ago
0 STARLINK-30495
1 57968U 23151E   26236.65056483  .00000204  00000-0  16942-4 0  9995
2 57968  43.0025 107.4658 0001367 276.0943  83.9753 15.27577258161451
Epoch: 2026-08-24T15:36Z
TLE epoch observation values (Epoch: 2026-08-24T15:36:48.801Z)
Latitude
-0°
Longitude
-99.66676°
Altitude
482.735 km
Speed
7.626 km/s
True Right ascension
07h 09m 51s
True Declination
0° 00' 00"
Sunlit
Object was in daylight at epoch
Visualization orbit readout
Latitude
Unknown
Longitude
Unknown
Altitude
Unknown
Speed
Unknown
Apparent Right ascension
Unknown
Apparent Declination
Unknown
Sunlit
N/A
Visualization observer readout
Local Sidereal Time
00:46:52
Azimuth
Unknown
Elevation
Unknown
Doppler factor
Unknown
Orbital elements
Apogee altitude
485.94 km
Perigee altitude
484.064 km
Semi-major axis
6,863.139 km
Eccentricity
0.00014
Inclination
43.0025°
RAAN
107.4658°
Arg. of periapsis
276.0943°
True anomaly
83.99088°
Mean anomaly
83.9753°
Eccentric anomaly
83.98309°
Mean motion
3.81732 °/min
Orbital period
94.31 mins
BSTAR
0.000016942
Loading maneuver chart data...
Computing Atmospheric mass density...
Loading historical data...
Loading historical data...
Loading historical data...
Loading historical data...
Loading historical data...
Loading historical data...
Loading historical data...

Documentation

Showing up to 5 results
|